www.pogodaiklimat.ru

Погода и климат >> Архив погоды >> Россия >> Якутия >> Сухана


ПОГОДА в Сухане

  • Прогноз погоды в Сухане
  • Монитор погоды в Сухане

АРХИВ ПОГОДЫ в Сухане

Время (UTC), дата Ветер
(напр.,м/с)
 
Видим.   Явления Облачность Т
(С)
Тd
(С)
f
(%)
Тe
(С)
Тes
(С)
Комфортность P
(гПа)
Po
(гПа)
Тmin
(С)
Tmax
(С)
R
(мм)
R24
(мм)
S
(см)
21 19.03 штиль 0 50 км ясно -38.6 -41.3 75 -39 -39 опасность
обморожения
1024.2 1012.7
00 20.03 штиль 0 50 км ясно -39.5 -42.9 70 -40 -39 опасность
обморожения
1024.2 1012.7 -39.5 30
03 20.03 Ю 1 50 км ясно -30.3 -34.9 64 -34 -31 опасность
обморожения
1023.2 1012.2
06 20.03 Ю 1 50 км 1/0
[Ci fib]
-21.3 -27.0 60 -24 -22 1021.6 1011.0
09 20.03 Ю 1 50 км 1/0
[Ci fib]
-12.7 -22.2 45 -15 -15 1021.3 1010.9
12 20.03 С 1 50 км ясно -19.1 -23.2 70 -22 -22 1022.1 1011.5 -11.2
15 20.03 С 1 50 км ясно -25.3 -27.7 80 -29 -29 1023.0 1012.2
18 20.03 С 1 50 км ясно -28.9 -31.3 80 -33 -33 опасность
обморожения
1023.3 1012.3
21 20.03 С 1 50 км 3/0
[Ac trans Ci fib]
-33.3 -35.6 80 -38 -38 опасность
обморожения
1023.6 1012.3
00 21.03 штиль 0 50 км 4/0
[Cs]
-32.2 -35.2 75 -32 -31 опасность
обморожения
1023.5 1012.5 -33.3 30
03 21.03 Ю 1 50 км 3/0
[Cs]
-24.5 -28.5 69 -28 -25 1022.3 1011.5
06 21.03 Ю 1 50 км 3/0
[Cs]
-15.4 -22.4 55 -18 -15 1019.8 1009.5
09 21.03 Ю 1 50 км 3/0
[Ac trans Cs]
-9.3 -16.2 57 -11 -11 1018.0 1007.9
12 21.03 Ю 2 50 км 3/0
[]
-11.7 -15.2 75 -16 -16 1017.5 1007.4 -9.3
15 21.03 Ю 3 50 км 8/0
[Ac trans Cs]
-12.2 -15.7 75 -18 -18 1013.6 1003.5
18 21.03 Ю 5 50 км позёмок 10/0
[Cs]
-11.9 -16.3 70 -20 -20 1009.9 999.9
21 21.03 Ю 5 50 км позёмок 10/0
[Ac trans Cs]
-11.6 -16.0 70 -20 -20 1005.4 995.4
00 22.03 Ю 5 10 км слаб. снег {метель} 10/0
[As op]
-11.7 -15.2 75 -20 -20 1001.7 991.7 -12.9 0.2 30
03 22.03 Ю 4 4000 м слаб. снег {метель} 10/0
[As op]
-10.1 -12.1 85 -17 -17 998.8 988.9
06 22.03 Ю 4 10 км слаб. снег {метель} 10/0
[As op]
-8.5 -10.8 83 -15 -15 996.9 986.7
09 22.03 Ю 2 20 км слаб. снег {метель} 10/0
[As op]
-7.5 -9.7 84 -12 -12 995.9 986.2
12 22.03 Ю 1 20 км слаб. снег {метель} 10/0
[As op]
-7.9 -9.3 90 -10 -10 995.6 985.7 -7.4 3
15 22.03 С 1 20 км слаб. снег 10/0
[As op]
-10.8 -12.1 90 -13 -13 997.3 987.4
18 22.03 С 1-10
{11}
20 км позёмок {туман} 10/0
[Ac lent]
-19.4 -22.7 75 -22 -22 1006.1 974.8
21 22.03 С 1 50 км {снег} 10/0
[Ac As]
-20.0 -22.6 80 -23 -23 1002.4 991.8
00 23.03 С 1 50 км {снег} 6/0
[Ac trans Cs]
-21.2 -24.4 75 -24 -24 1003.7 993.3 -21.2 0.9 33
03 23.03 С 3 50 км 3/0
[Cs]
-20.2 -24.3 70 -28 -25 1005.7 995.3
06 23.03 С 3 50 км 3/0
[Ci fib]
-18.4 -23.4 65 -26 -23 1007.1 996.7
09 23.03 С 3 50 км 4/0
[Ac trans Cs]
-17.4 -21.5 70 -24 -24 1009.9 999.5
12 23.03 С 3 50 км 3/0
[Ac trans]
-19.4 -22.7 75 -27 -27 1011.9 1001.4 -17.4
15 23.03 С 2 20 км слаб. снег 10/0
[Cs]
-22.2 -25.4 75 -28 -28 1013.8 1003.3
18 23.03 С 1 50 км {снег} 3/0
[Cs]
-24.3 -27.5 75 -28 -28 1015.3 1004.6
21 23.03 С 1 50 км 3/0
[Ac trans]
-25.6 -28.1 79 -29 -29 1016.1 1005.4
00 24.03 СЗ 1 50 км 3/0
[Ac trans Ci fib]
-26.1 -28.5 80 -30 -29 1017.7 1007.0 -26.1 0.0 33
03 24.03 ЮВ 1 50 км 3/0
[Ci fib]
-21.8 -25.8 70 -25 -21 1018.0 1007.5
06 24.03 СЗ 2 50 км ясно -17.8 -23.7 60 -23 -20 1018.6 1008.1
09 24.03 С 1 50 км ясно -16.4 -22.4 60 -19 -19 1019.3 1009.0
12 24.03 С 1 50 км ясно -21.3 -24.6 75 -24 -24 1020.2 1009.7 -16.4
15 24.03 штиль 0 50 км ясно -28.1 -30.4 81 -28 -28 1020.5 1010.5
18 24.03 штиль 0 50 км ясно -33.3 -35.6 80 -33 -33 опасность
обморожения
1022.2 1010.9
21 24.03 штиль 0 50 км ясно -37.0 -39.7 76 -37 -37 опасность
обморожения
1022.7 1011.4
00 25.03 штиль 0 50 км ясно -36.7 -39.7 74 -37 -35 опасность
обморожения
1023.1 1011.8 -37.0 33
03 25.03 Ю 1 50 км ясно -27.5 -31.3 70 -31 -27 опасность
обморожения
1022.8 1011.8
06 25.03 штиль 0 50 км ясно -18.2 -25.0 55 -18 -14 1021.6 1011.3
09 25.03 штиль 0 50 км ясно -14.6 -23.9 45 -15 -14 1021.1 1010.7
12 25.03 штиль 0 50 км 3/0
[Ac trans]
-19.7 -24.6 65 -20 -20 1021.9 1011.3 -19.7
15 25.03 С 1 50 км 3/0
[Ac trans]
-26.9 -29.3 80 -31 -31 опасность
обморожения
1022.6 1011.8
18 25.03 штиль 0 50 км ясно -31.1 -33.4 80 -31 -31 опасность
обморожения
1022.5 1011.5
21 25.03 С 1 50 км 3/0
[Ac trans]
-34.6 -36.7 81 -39 -39 опасность
обморожения
1023.2 1011.9
00 26.03 С 1 50 км 4/0
[Ac trans Ci fib]
-34.9 -37.7 75 -40 -38 опасность
обморожения
1023.2 1011.9 -35.3 33
03 26.03 Ю 1 50 км 3/0
[Ci fib]
-24.8 -29.5 65 -28 -24 1022.2 1011.4
06 26.03 Ю 1 50 км 3/0
[Ci fib]
-14.6 -22.7 50 -17 -14 1021.3 1010.9
09 26.03 Ю 1 50 км ясно -10.4 -21.4 40 -12 -12 1020.7 1010.5
12 26.03 штиль 0 50 км 3/0
[Ac trans]
-15.4 -22.4 55 -15 -15 1021.4 1011.0 -10.2
15 26.03 штиль 0 50 км 6/0
[Ac trans]
-21.3 -25.3 70 -21 -21 1021.5 1010.9
18 26.03 штиль 0 50 км 8/0
[Ac trans]
-24.0 -26.5 80 -24 -24 1021.4 1010.6

 

Местоположение метеостанции Сухана (Якутия, Россия): широта 68.62 долгота 118.30 высота над уровнем моря 77 м.

В архиве по умолчанию представлена погода в Сухане за последнюю неделю. Архивные данные за месяц целиком и за предыдущие месяцы, начиная с января 2011 года, Вы можете получить, выбрав интересующий диапазон дат из раскрывающегося списка и нажав кнопку "Ввод!".


*Определитесь, кто Вы:
робот инопланетянин человек

Внимание! Время в таблицах - всемирное. Для получения местного времени необходимо прибавить поправку, которая равна 9 ч.

Смотрите также архив погоды в соседних городах и на ближайших метеорологических станциях:

Погода в Джарджане (Якутия, Россия) (231 км)
Погода в Оленеке (Якутия, Россия) (240 км)
Погода в Джалинде (Якутия, Россия) (241 км)
Погода в Эйке (Якутия, Россия) (291 км)
Погода в Жиганске (Якутия, Россия) (294 км)
Погода в Шелагонцах (Якутия, Россия) (316 км)
Погода в Полярном (Якутия, Россия) (326 км)
Погода в Саскылахе (Якутия, Россия) (406 км)
Погода в Тюмяти (Якутия, Россия) (415 км)
Погода в Айхале (Якутия, Россия) (419 км)

Пояснения к столбцам:

Ветер - указаны скорость ветра в м/с - средняя за 10 мин, порывы в срок и между сроками (в фигурных скобках) и направление, откуда дует ветер: С - северный, СВ - северо-восточный, В - восточный, ЮВ - юго-восточный, Ю - южный, ЮЗ - юго-западный, З - западный, СЗ - северо-западный.
Видимость - горизонтальная дальность видимости в метрах или километрах. При видимости от 1 до 10 км при отсутствии осадков обычно наблюдается дымка, при ухудшении видимости до 1 км и менее - туман. В сухую погоду видимость может ухудшаться дымом, пылью или мглою.
Явления - указаны атмосферные явления, наблюдавшиеся в срок или в последний час перед сроком; фигурными скобками обозначены явления, наблюдавшиеся между сроками (за 1-3 часа до срока); квадратными скобками обозначены град или гололедные отложения с указанием их диаметра в мм.
Облачность - указаны через наклонную черту общая и нижняя облачность в баллах и высота нижней границы облаков в метрах; квадратными скобками обозначены формы облаков: Ci - перистые, Cs - перисто-слоистые, Cc - перисто-кучевые, Ac - высококучевые, As - высокослоистые, Sc - слоисто-кучевые, Ns - слоисто-дождевые, Cu - кучевые, Cb - кучево-дождевые. Подробнее классификацию облаков см. в Атласе облаков (PDF).
T - Температура воздуха - температура, измеренная на высоте 2 м над землей.
Td - Температура точки росы - температура, при понижении до которой содержащийся в воздухе водяной пар достигнет насыщения.
f - Относительная влажность воздуха - влажноcть воздуха, измеренная на высоте 2 м над землей.
Te - Эффективная температура - температура, которую ощущает одетый по сезону человек в тени. Характеристика душности погоды. При расчете учитывается влияние влажности воздуха и скорости ветра на теплоощущения человека.
Tes - Эффективная температура на солнце - температура, которую ощущает человек, с поправкой на солнечный нагрев. Характеристика знойности погоды. Зависит от высоты солнца над горизонтом, облачности и скорости ветра. Ночью, в пасмурную погоду, а также при ветре 12 м/с и более поправка равна нулю.
P - Атмосферное давление - приведенное к уровню моря атмосферное давление.
Po - Атмосферное давление - измеренное на уровне метеостанции атмосферное давление.
Tmin - Минимальная температура - минимум температуры воздуха на высоте 2 м над землей.
Tmax - Максимальная температура - максимум температуры воздуха на высоте 2 м над землей.
R - Количество осадков - Количество выпавших осадков за период времени, мм. При наведении курсора мыши на число - период времени, за который выпало указанное количество осадков.
R24 - Количество осадков - Количество выпавших осадков за 24 часа, мм.
S - Снежный покров - Высота снежного покрова, см. При наведении курсора мыши на число - состояние снежного покрова и степень покрытия местности в баллах.